Terug naar catalogus

STARLINK-33644

ActiefCommunicatieVLEO
NORAD 63414·PAYLOAD·🇺🇸 United States

Gelanceerd Mar 31, 2025 vanaf Cape Canaveral Space Force Station

Loading…

Volgende Passages (komende 24 uur)

TLE

VersSource: CelesTrak SupGP

Epoch: Sep 15, 2026, 02:42 UTC

1 63414C 25065R   26258.11298611  .00051447  00000+0  18632-2 0  2588
2 63414  42.9994 117.7622 0001459 273.7215  99.5569 15.27555940    16

Volg STARLINK-33644 in realtime met AllMySat

Download on the App Store